Radiation Dose at Monitoring Post of Fukushima Daini Nuclear Power Station
Date,Time,MP-1(microSv/h),MP-2(microSv/h),MP-3(microSv/h),MP-4(microSv/h),MP-5(microSv/h),MP-6(microSv/h),MP-7(microSv/h),Wind Direction,Wind Velocity(m/s),Rain
2020/04/30,00:00,0.177,0.161,0.273,0.248,0.258,0.140,0.085,north-northwest,2.7,No
2020/04/30,00:10,0.176,0.163,0.272,0.247,0.258,0.139,0.085,northwest,2.9,No
2020/04/30,00:20,0.177,0.163,0.273,0.247,0.259,0.139,0.085,west-northwest,3.6,No
2020/04/30,00:30,0.176,0.162,0.273,0.248,0.258,0.139,0.084,northwest,3.6,No
2020/04/30,00:40,0.176,0.163,0.272,0.248,0.259,0.139,0.086,west-northwest,3.2,No
2020/04/30,00:50,0.176,0.162,0.273,0.248,0.259,0.140,0.085,west-northwest,3.3,No
2020/04/30,01:00,0.175,0.162,0.273,0.248,0.258,0.139,0.085,west-northwest,4.0,No
2020/04/30,01:10,0.176,0.162,0.271,0.248,0.260,0.139,0.085,west-northwest,3.2,No
2020/04/30,01:20,0.177,0.162,0.273,0.247,0.258,0.140,0.085,northwest,2.9,No
2020/04/30,01:30,0.176,0.161,0.273,0.247,0.258,0.139,0.084,west-northwest,4.3,No
2020/04/30,01:40,0.176,0.163,0.273,0.248,0.258,0.139,0.084,northwest,4.7,No
2020/04/30,01:50,0.176,0.163,0.274,0.248,0.258,0.138,0.084,west-northwest,4.5,No
2020/04/30,02:00,0.176,0.162,0.273,0.248,0.258,0.139,0.085,west-northwest,4.7,No
2020/04/30,02:10,0.177,0.162,0.272,0.248,0.259,0.139,0.085,northwest,3.8,No
2020/04/30,02:20,0.176,0.163,0.271,0.247,0.258,0.139,0.084,west-northwest,4.8,No
2020/04/30,02:30,0.176,0.163,0.272,0.248,0.259,0.139,0.085,west-northwest,5.1,No
2020/04/30,02:40,0.177,0.163,0.274,0.248,0.258,0.139,0.085,west-northwest,6.0,No
2020/04/30,02:50,0.176,0.163,0.272,0.247,0.257,0.139,0.084,northwest,7.0,No
2020/04/30,03:00,0.176,0.162,0.275,0.247,0.259,0.138,0.085,northwest,5.9,No
2020/04/30,03:10,0.176,0.162,0.272,0.248,0.258,0.140,0.084,northwest,5.4,No
2020/04/30,03:20,0.176,0.162,0.273,0.249,0.259,0.139,0.084,northwest,5.5,No
2020/04/30,03:30,0.177,0.163,0.273,0.246,0.259,0.139,0.084,northwest,4.8,No
2020/04/30,03:40,0.176,0.163,0.274,0.247,0.258,0.138,0.085,northwest,4.9,No
2020/04/30,03:50,0.177,0.162,0.274,0.248,0.258,0.139,0.085,north-northwest,4.7,No
2020/04/30,04:00,0.177,0.162,0.273,0.247,0.258,0.140,0.085,north,4.7,No
2020/04/30,04:10,0.176,0.163,0.274,0.247,0.259,0.140,0.085,north,5.2,No
2020/04/30,04:20,0.177,0.162,0.273,0.248,0.259,0.140,0.085,north,5.4,No
2020/04/30,04:30,0.177,0.163,0.272,0.248,0.259,0.141,0.085,north,5.9,No
2020/04/30,04:40,0.177,0.163,0.273,0.247,0.259,0.140,0.085,north,5.6,No
2020/04/30,04:50,0.176,0.163,0.275,0.247,0.258,0.141,0.086,north,5.3,No
2020/04/30,05:00,0.177,0.163,0.273,0.247,0.259,0.140,0.085,north-northwest,4.0,No
2020/04/30,05:10,0.177,0.162,0.274,0.248,0.259,0.140,0.085,north,5.4,No
2020/04/30,05:20,0.176,0.161,0.275,0.248,0.259,0.139,0.085,north,5.2,No
2020/04/30,05:30,0.177,0.162,0.273,0.248,0.258,0.139,0.085,north,4.7,No
2020/04/30,05:40,0.177,0.162,0.271,0.248,0.258,0.140,0.084,north,5.0,No
2020/04/30,05:50,0.177,0.163,0.273,0.247,0.260,0.139,0.085,north-northwest,4.1,No
2020/04/30,06:00,0.177,0.162,0.274,0.248,0.259,0.140,0.085,north-northwest,3.8,No
2020/04/30,06:10,0.177,0.162,0.272,0.249,0.257,0.140,0.085,north,3.2,No
2020/04/30,06:20,0.177,0.163,0.272,0.246,0.258,0.139,0.084,north-northwest,2.6,No
2020/04/30,06:30,0.177,0.162,0.273,0.248,0.257,0.140,0.085,north,2.5,No
2020/04/30,06:40,0.176,0.163,0.273,0.246,0.260,0.140,0.085,north,1.8,No
2020/04/30,06:50,0.177,0.161,0.273,0.247,0.258,0.139,0.085,north-northwest,1.2,No
2020/04/30,07:00,0.176,0.161,0.271,0.248,0.259,0.139,0.083,east,1.1,No
2020/04/30,07:10,0.176,0.161,0.272,0.247,0.258,0.139,0.084,north-northeast,0.9,No
2020/04/30,07:20,0.176,0.161,0.271,0.247,0.257,0.139,0.084,north,0.6,No
2020/04/30,07:30,0.176,0.162,0.272,0.246,0.258,0.139,0.085,north-northeast,1.2,No
2020/04/30,07:40,0.177,0.161,0.270,0.248,0.257,0.138,0.084,north-northeast,1.4,No
2020/04/30,07:50,0.176,0.162,0.272,0.244,0.260,0.139,0.084,north-northeast,1.8,No
2020/04/30,08:00,0.176,0.161,0.271,0.247,0.257,0.138,0.084,north-northeast,1.0,No
2020/04/30,08:10,0.174,0.162,0.274,0.245,0.259,0.138,0.083,east-northeast,0.9,No
2020/04/30,08:20,0.176,0.161,0.269,0.245,0.258,0.138,0.084,east,1.7,No
2020/04/30,08:30,0.175,0.162,0.273,0.247,0.260,0.139,0.084,east-southeast,1.3,No
2020/04/30,08:40,0.176,0.161,0.271,0.244,0.258,0.138,0.084,east-southeast,1.3,No
2020/04/30,08:50,0.175,0.162,0.271,0.246,0.257,0.140,0.085,south-southeast,1.2,No
2020/04/30,09:00,0.175,0.162,0.273,0.245,0.260,0.138,0.084,south-southeast,1.3,No
2020/04/30,09:10,0.177,0.161,0.270,0.246,0.255,0.139,0.083,south-southeast,2.4,No
2020/04/30,09:20,0.175,0.162,0.273,0.247,0.258,0.138,0.085,south-southeast,2.6,No
2020/04/30,09:30,0.175,0.161,0.274,0.245,0.258,0.138,0.084,south,1.6,No
2020/04/30,09:40,0.176,0.160,0.270,0.245,0.256,0.139,0.084,south-southeast,2.3,No
2020/04/30,09:50,0.175,0.162,0.273,0.248,0.260,0.139,0.084,south-southeast,1.6,No
2020/04/30,10:00,0.176,0.161,0.273,0.245,0.256,0.140,0.084,south-southeast,1.4,No
2020/04/30,10:10,0.177,0.161,0.271,0.246,0.257,0.139,0.084,south-southeast,5.1,No
2020/04/30,10:20,0.175,0.162,0.272,0.247,0.259,0.138,0.084,south-southeast,4.9,No
2020/04/30,10:30,0.174,0.161,0.273,0.245,0.256,0.139,0.084,south-southeast,4.5,No
2020/04/30,10:40,0.176,0.162,0.269,0.246,0.257,0.139,0.085,south-southeast,5.9,No
2020/04/30,10:50,0.175,0.162,0.271,0.248,0.260,0.138,0.084,south,5.1,No
2020/04/30,11:00,0.173,0.161,0.275,0.246,0.257,0.139,0.084,south-southeast,3.7,No
2020/04/30,11:10,0.176,0.162,0.273,0.246,0.255,0.139,0.084,south,4.5,No
2020/04/30,11:20,0.176,0.162,0.270,0.249,0.260,0.139,0.084,south-southeast,5.1,No
2020/04/30,11:30,0.175,0.161,0.272,0.248,0.258,0.139,0.084,south-southeast,5.1,No
2020/04/30,11:40,0.176,0.161,0.273,0.245,0.255,0.139,0.084,south,5.6,No
2020/04/30,11:50,0.176,0.161,0.272,0.248,0.259,0.138,0.084,south-southeast,5.8,No
2020/04/30,12:00,0.175,0.161,0.271,0.248,0.258,0.138,0.084,south-southeast,6.1,No
2020/04/30,12:10,0.175,0.162,0.275,0.246,0.256,0.137,0.084,south-southeast,5.6,No
2020/04/30,12:20,0.178,0.161,0.273,0.247,0.258,0.139,0.084,south-southeast,5.7,No
2020/04/30,12:30,0.176,0.161,0.272,0.249,0.259,0.140,0.084,south-southeast,6.4,No
2020/04/30,12:40,0.174,0.162,0.271,0.246,0.257,0.139,0.085,south-southeast,5.0,No
2020/04/30,12:50,0.176,0.162,0.274,0.249,0.255,0.139,0.084,south-southeast,4.5,No
2020/04/30,13:00,0.178,0.162,0.272,0.248,0.259,0.138,0.084,south-southeast,4.5,No
2020/04/30,13:10,0.176,0.162,0.271,0.246,0.258,0.138,0.084,southeast,5.2,No
2020/04/30,13:20,0.175,0.162,0.274,0.246,0.256,0.139,0.085,southeast,4.8,No
2020/04/30,13:30,0.175,0.162,0.275,0.249,0.259,0.139,0.084,southeast,5.6,No
2020/04/30,13:40,0.176,0.162,0.271,0.248,0.259,0.139,0.084,southeast,6.4,No
2020/04/30,13:50,0.175,0.162,0.271,0.247,0.257,0.140,0.083,south-southeast,3.5,No
2020/04/30,14:00,0.174,0.162,0.275,0.248,0.257,0.139,0.085,southeast,2.1,No
2020/04/30,14:10,0.177,0.162,0.273,0.248,0.260,0.138,0.085,south-southeast,3.1,No
2020/04/30,14:20,0.176,0.161,0.271,0.246,0.258,0.139,0.085,south,2.7,No
2020/04/30,14:30,0.175,0.163,0.275,0.248,0.257,0.139,0.085,south-southeast,3.5,No
2020/04/30,14:40,0.175,0.162,0.275,0.248,0.260,0.138,0.085,southeast,6.3,No
2020/04/30,14:50,0.176,0.161,0.271,0.246,0.259,0.138,0.084,south-southeast,3.2,No
2020/04/30,15:00,0.177,0.163,0.273,0.249,0.256,0.139,0.083,south-southeast,6.1,No
2020/04/30,15:10,0.176,0.162,0.274,0.248,0.258,0.140,0.085,south-southeast,6.9,No
2020/04/30,15:20,0.175,0.161,0.273,0.247,0.261,0.138,0.084,south-southeast,4.9,No
2020/04/30,15:30,0.179,0.163,0.274,0.249,0.258,0.139,0.085,south-southeast,4.6,No
2020/04/30,15:40,0.177,0.162,0.274,0.248,0.256,0.139,0.084,south,5.4,No
2020/04/30,15:50,0.175,0.163,0.274,0.250,0.259,0.139,0.084,south,5.6,No
2020/04/30,16:00,0.178,0.162,0.275,0.248,0.259,0.139,0.084,south,5.2,No
2020/04/30,16:10,0.177,0.163,0.273,0.248,0.259,0.140,0.086,south-southeast,4.2,No
2020/04/30,16:20,0.175,0.162,0.276,0.250,0.256,0.139,0.085,south-southeast,3.8,No
2020/04/30,16:30,0.178,0.163,0.274,0.247,0.261,0.140,0.084,south-southeast,3.6,No
2020/04/30,16:40,0.176,0.162,0.274,0.249,0.259,0.140,0.084,southeast,3.2,No
2020/04/30,16:50,0.177,0.164,0.274,0.248,0.258,0.138,0.084,south-southeast,3.3,No
2020/04/30,17:00,0.177,0.162,0.275,0.249,0.262,0.139,0.085,southeast,3.4,No
2020/04/30,17:10,0.177,0.163,0.274,0.248,0.258,0.140,0.084,southeast,3.9,No
2020/04/30,17:20,0.176,0.163,0.275,0.249,0.262,0.139,0.083,south-southeast,4.8,No
2020/04/30,17:30,0.176,0.162,0.274,0.249,0.261,0.140,0.085,south-southeast,5.8,No
2020/04/30,17:40,0.177,0.162,0.275,0.249,0.259,0.139,0.085,south,6.5,No
2020/04/30,17:50,0.176,0.164,0.274,0.250,0.259,0.139,0.084,south,6.2,No
2020/04/30,18:00,0.175,0.162,0.276,0.248,0.259,0.140,0.084,south,6.0,No
2020/04/30,18:10,0.176,0.163,0.275,0.249,0.260,0.139,0.085,south,6.3,No
2020/04/30,18:20,0.176,0.163,0.276,0.248,0.259,0.139,0.084,south,6.2,No
2020/04/30,18:30,0.177,0.163,0.274,0.251,0.259,0.139,0.085,south,5.4,No
2020/04/30,18:40,0.177,0.163,0.276,0.248,0.260,0.139,0.085,south,5.3,No
2020/04/30,18:50,0.176,0.163,0.273,0.250,0.260,0.139,0.084,south-southwest,5.4,No
2020/04/30,19:00,0.177,0.163,0.274,0.248,0.260,0.140,0.084,south-southwest,6.3,No
2020/04/30,19:10,0.176,0.163,0.273,0.248,0.259,0.140,0.084,south-southwest,5.9,No
2020/04/30,19:20,0.176,0.162,0.273,0.248,0.260,0.139,0.084,south-southwest,5.6,No
2020/04/30,19:30,0.177,0.162,0.275,0.248,0.258,0.140,0.083,south,5.6,No
2020/04/30,19:40,0.177,0.163,0.273,0.249,0.259,0.139,0.084,south-southwest,5.4,No
2020/04/30,19:50,0.176,0.162,0.274,0.248,0.257,0.140,0.084,south-southwest,4.0,No
2020/04/30,20:00,0.176,0.163,0.273,0.249,0.260,0.139,0.085,south-southwest,4.1,No
2020/04/30,20:10,0.176,0.162,0.274,0.248,0.258,0.140,0.084,south-southwest,4.4,No
2020/04/30,20:20,0.176,0.163,0.273,0.249,0.260,0.139,0.085,south-southwest,4.2,No
2020/04/30,20:30,0.177,0.163,0.275,0.249,0.258,0.140,0.085,south-southwest,4.0,No
2020/04/30,20:40,0.176,0.161,0.273,0.248,0.260,0.140,0.085,south-southwest,5.7,No
2020/04/30,20:50,0.177,0.162,0.274,0.250,0.258,0.139,0.084,south-southwest,5.7,No
2020/04/30,21:00,0.177,0.162,0.276,0.248,0.260,0.140,0.084,south,5.1,No
2020/04/30,21:10,0.177,0.162,0.273,0.250,0.258,0.139,0.084,south,5.1,No
2020/04/30,21:20,0.177,0.163,0.274,0.248,0.260,0.140,0.084,south,4.9,No
2020/04/30,21:30,0.176,0.162,0.275,0.249,0.258,0.140,0.084,south,5.5,No
2020/04/30,21:40,0.178,0.162,0.275,0.249,0.260,0.139,0.085,south-southwest,5.1,No
2020/04/30,21:50,0.175,0.162,0.274,0.248,0.259,0.140,0.084,south-southwest,4.6,No
2020/04/30,22:00,0.178,0.162,0.273,0.249,0.258,0.139,0.085,south-southwest,3.7,No
2020/04/30,22:10,0.175,0.164,0.276,0.248,0.261,0.139,0.085,south-southwest,2.7,No
2020/04/30,22:20,0.177,0.162,0.274,0.250,0.259,0.140,0.085,south-southwest,2.0,No
2020/04/30,22:30,0.177,0.163,0.275,0.247,0.261,0.141,0.086,south-southwest,2.1,No
2020/04/30,22:40,0.177,0.163,0.273,0.249,0.260,0.140,0.085,south-southeast,2.6,No
2020/04/30,22:50,0.178,0.163,0.273,0.250,0.261,0.140,0.085,south-southeast,2.7,No
2020/04/30,23:00,0.176,0.163,0.275,0.248,0.259,0.140,0.085,south-southeast,2.6,No
2020/04/30,23:10,0.176,0.163,0.274,0.248,0.259,0.139,0.085,south,1.9,No
2020/04/30,23:20,0.176,0.162,0.277,0.249,0.259,0.140,0.085,south,1.3,No
2020/04/30,23:30,0.178,0.164,0.275,0.248,0.260,0.140,0.085,south-southwest,1.6,No
2020/04/30,23:40,0.176,0.163,0.274,0.250,0.261,0.140,0.085,south,1.6,No
2020/04/30,23:50,0.178,0.162,0.276,0.248,0.260,0.140,0.085,south-southwest,1.5,No
